Flag for Canada Weather past 2 weeks in Waterloo, Ontario, Canada

Now
43 °F

Clear.


Feels Like: 37 °F
Forecast: 38 / 60 °F
Wind: 10 mph from Northwest

Location: Waterloo Well

Current Time: Apr 27, 2015 at 10:24:44 PM

Latest Report: Apr 27, 2015 at 10:00 PM


Visibility: 9 mi

Pressure: 30.03 "Hg

Humidity: 71%

Dew point: 34 °F

Location of WaterlooLocation

Historic Weather in Waterloo — Graph

°F

Waterloo temperature yesterday

Maximum temperature yesterday: 52 °F (at 3:00 PM)
Minimum temperature yesterday: 30 °F (at 7:00 AM)
Average temperature yesterday: 42 °F

Past Weeks' High & Low Weather Summary

 TemperatureHumidityPressure
High72 °F (Apr 13, 1:00 PM)100% (Apr 17, 3:00 AM)30.41 "Hg (Apr 17, 3:00 AM)
Low25 °F (Apr 25, 5:00 AM)19% (Apr 18, 3:00 PM)29.34 "Hg (Apr 20, 5:00 PM)
Average44 °F67%29.92 "Hg
* Reported Apr 12 9:00 PM — Apr 27 9:00 PM, Waterloo, Weather by CustomWeather, © 2015

Note: Actual official high and low records may vary slightly from our data, if they occured in-between our weather recording intervals... More about our weather records

Advertising

Waterloo weather history for previous 24 hours

 ConditionsComfort  
Time TempWeatherWind HumidityBarometerVisibility
9:00 PM
Mon, Apr 27
43 °FSunny.7 mph71%30.02 "Hg9 mi
8:00 PM48 °FSunny.9 mph58%29.99 "Hg9 mi
7:00 PM52 °FOvercast.15 mph54%29.97 "Hg9 mi
6:00 PM50 °FMore clouds than sun.10 mph62%29.97 "Hg9 mi
5:00 PM48 °FMostly cloudy.12 mph66%29.96 "Hg9 mi
4:00 PM48 °FCloudy.14 mph66%29.95 "Hg9 mi
3:56 PM48 °FCloudy.15 mph66%29.94 "Hg9 mi
3:00 PM48 °FMostly cloudy.18 mph66%29.94 "Hg9 mi
2:00 PM48 °FBroken clouds.16 mph66%29.92 "Hg9 mi
1:55 PM48 °FCloudy.17 mph66%29.92 "Hg9 mi
1:00 PM46 °FOvercast.14 mph66%29.93 "Hg9 mi
12:00 PM46 °FMostly cloudy.15 mph66%29.91 "Hg9 mi
11:52 AM46 °FMostly cloudy.18 mph66%29.90 "Hg9 mi
11:00 AM43 °FMostly cloudy.13 mph76%29.90 "Hg9 mi
10:00 AM41 °FOvercast.17 mph76%29.89 "Hg9 mi
9:00 AM37 °FOvercast.16 mph87%29.88 "Hg9 mi
8:00 AM37 °FMostly cloudy.12 mph87%29.87 "Hg9 mi
7:46 AM37 °FMostly cloudy.10 mph87%29.86 "Hg9 mi
7:00 AM36 °FLight rain. Mostly cloudy.13 mph93%29.85 "Hg9 mi
6:53 AM36 °FLight rain. Mostly cloudy.10 mph93%29.85 "Hg9 mi
6:00 AM37 °FLight rain. Mostly cloudy.13 mph87%29.84 "Hg9 mi
5:56 AM37 °FLight rain. Mostly cloudy.10 mph87%29.84 "Hg9 mi
5:01 AM37 °FLight rain. Overcast.12 mph87%29.83 "Hg9 mi
4:00 AM39 °FPassing clouds.9 mph81%29.82 "Hg9 mi
3:00 AM39 °FOvercast.9 mph81%29.82 "Hg9 mi
2:00 AM39 °FOvercast.10 mph81%29.83 "Hg9 mi
1:00 AM39 °FOvercast.9 mph81%29.84 "Hg9 mi
12:00 AM39 °FOvercast.8 mph81%29.84 "Hg9 mi
11:00 PM
Sun, Apr 26
41 °FOvercast.9 mph76%29.85 "Hg9 mi
10:00 PM43 °FOvercast.13 mph71%29.86 "Hg9 mi
Weather by CustomWeather, © 2015

See weather overviewHow to use our weather pages